[ hide orbit diagram ]
For accurate long-term ephemerides, please instead use our Horizons system.This orbit viewer was implemented using two-body methods, and hence should not be used for determining accurate long-term trajectories (over several years or decades) or planetary encounter circumstances.
Orbital Elements at Epoch 2459200.5 (2020-Dec-17.0) TDB
Reference: JPL 17 (heliocentric ecliptic J2000)
Element | Value | Uncertainty (1-sigma) | Units |
e | .08739388796420079 | 4.6918e-08 | |
a | 2.654297758865825 | 1.7954e-08 | au |
q | 2.422328357903876 | 1.2437e-07 | au |
i | 10.06818891147799 | 4.8954e-06 | deg |
node | 101.5567895440349 | 2.8415e-05 | deg |
peri | 148.9598543702573 | 4.1003e-05 | deg |
M | 335.5274130305073 | 3.1283e-05 | deg |
tp | 2459307.874280628156 (2021-Apr-03.37428063) | 0.00013767 | TDB |
period | 1579.511846227076 4.32 | 1.6026e-05 4.388e-08 | d yr |
n | .2279185185346468 | 2.3125e-09 | deg/d |
Q | 2.886267159827775 | 1.9523e-08 | au |
|
| | Orbit Determination Parameters
Additional Information
|
[ show covariance matrix ]
Physical Parameter Table
Parameter |
Symbol |
Value |
Units |
Sigma |
Reference |
Notes |
absolute magnitude |
H |
15.56 |
|
n/a |
E2021B10 |
|
|
85559 Villecroze | Discovered 1998 Jan. 8 by S. Banh at the Dominion Astrophysical Observatory. |
The discoverer is thankful for having completed her undergraduate degree in physics and astronomy, giving her the opportunity to work as a student at the DAO and then at the Canada-France-Hawaii telescope. It was in Hawaii that she met her husband Jean-Louis Villecroze, who is the most important person in her life. |
NOTE: some special characters may not display properly (any characters within {} are an attempt to place the proper accent above a character) |
Reference: 20050407/MPCPages.arc | Last Updated: 2005-04-15 |
|
|